User: anonymous   Login
Location: Strawberry
(45.6646°N, 111.9596°W)
Time: 09:34:19
(UTC+00:00)
Language:

BEESAT - Orbit

View from above orbital plane
View from above orbital plane
View from above satellite
View from above satellite

Ground track
Ground track

The orbit data is extracted from the following two-line orbital elements,

1 35933U 09051C   22329.85728273  .00000572  00000-0  13790-3 0  9995
2 35933  98.5388 191.6564 0004677 290.1033  69.9661 14.57081535699673
Epoch (UTC): 25 November 2022 20:34:29
Eccentricity: 0.0004677
inclination: 98.5388°
perigee height: 699 km
apogee height: 706 km
right ascension of ascending node: 191.6564°
argument of perigee: 290.1033°
revolutions per day: 14.57081535
mean anomaly at epoch: 69.9661°
orbit number at epoch: 69967

The dashed part of the orbit path shows where the satellite is in the earth's shadow,  

DLR